Regional Weather Roundup
Issued by NWS

Home | Current Version | Previous Version | Graphics & Text | Print | Product List | Glossary Off
Versions: 1 2 3 4 5 6 7 8 9 10 11 12 13 14 15 16 17 18 19 20 21 22 23 24 25 26 27 28 29 30 31 32 33 34 35 36 37 38 39 40 41 42 43 44 45 46 47 48 49 50

000
ASUS43 KTOP 062159
RWRKS

WEATHER ROUNDUP FOR KANSAS
NATIONAL WEATHER SERVICE GOODLAND KS
500 PM CDT WED MAY 06 2015

NOTE:  "FAIR" INDICATES FEW OR NO CLOUDS BELOW 12,000 FEET WITH NO
SIGNIFICANT WEATHER AND/OR OBSTRUCTIONS TO VISIBILITY.

KSZ001>006-013>018-027>032-041>047-062300-
NORTHWEST KANSAS

CITY           SKY/WX    TMP DP  RH WIND       PRES   REMARKS
GOODLAND       PTSUNNY   62  57  83 S17       29.62F
HAYS           PTSUNNY   79  57  47 SW32G39   29.58S
HILL CITY      PTSUNNY   74  54  49 SW13G30   29.59F
RUSSELL        TSTM      67  61  81 S13       29.58F
$$

KSZ061>065-074>080-084>089-062300-
SOUTHWEST KANSAS

CITY           SKY/WX    TMP DP  RH WIND       PRES   REMARKS
DODGE CITY     MOSUNNY   81  49  32 SW26G39   29.64F
ELKHART          N/A     78  48  34 S22         N/A
GARDEN CITY    MOSUNNY   76  51  41 S25G35    29.62F
GREAT BEND     PTSUNNY   75  61  60 S25G32    29.60F
LIBERAL        MOSUNNY   81  52  36 SW23G31   29.66F
$$

KSZ066>073-081>083-090>101-062300-
SOUTHEAST KANSAS

CITY           SKY/WX    TMP DP  RH WIND       PRES   REMARKS
CHANUTE        LGT RAIN  76  63  64 S22G30    29.87F
COFFEYVILLE    MOSUNNY   77  62  59 S20G29    29.87
HUTCHINSON     PTSUNNY   75  66  73 S26G38    29.68F
MEDICINE LODGE   N/A     80  64  58 S26G36    29.66F
NEWTON         PTSUNNY   73  64  73 S24G32    29.75F
PARSONS        PTSUNNY   77  64  64 S10G22    29.88F
WICHITA INTL   PTSUNNY   74  66  76 SE30G36   29.73F
WICHITA JABRA  MOSUNNY   72  64  76 SE30G38   29.74F
WINFIELD       PTSUNNY   73  66  78 S26G33    29.80F
$$

KSZ007>012-019>026-033>040-048>060-102>105-062300-
NORTHEAST KANSAS

CITY           SKY/WX    TMP DP  RH WIND       PRES   REMARKS
CONCORDIA      LGT RAIN  68  63  84 SE29G41   29.65F
EMPORIA        CLOUDY    71  64  78 S21G33    29.80F
LAWRENCE       CLOUDY    70  60  70 SE21      29.87F
MANHATTAN      CLOUDY    71  64  78 S23G33    29.74F
OLATHE IND     CLOUDY    70  63  78 SE13      29.89F
OLATHE EXE     PTSUNNY   70  65  84 SE13G21   29.89F
SALINA         PTSUNNY   77  65  66 SE31G40   29.66F
TOPEKA BILLARD CLOUDY    72  62  71 SE22G29   29.83F
TOPEKA FORBES  CLOUDY    71  62  73 SE17G25   29.82F
$$


USA.gov is the U.S. government's official web portal to all federal, state and local government web resources and services.